RRR400 EBBR-EHAM

Flight info

Callsign RRR400
Flight time 0h 24m
Altitude 16000
Route HELEN
Aircraft A332/H-SDE3GHIJ2J3J5M1RVWXY/LB2D1

Departure

Time 2026-05-07 18:17
Airport Brussels Airport (EBBR)

Arrival

Time 2026-05-07 18:41
Airport Amsterdam Airport Schiphol (EHAM)
Time Latitude Longitude Altitude Speed Heading
2026-05-07 18:00 50.91096 4.48529 124 ft 0 kts 330°
2026-05-07 18:07 50.91089 4.48536 119 ft 2 kts 330°
2026-05-07 18:07 50.91075 4.48549 119 ft 2 kts 330°
2026-05-07 18:07 50.91061 4.48562 120 ft 2 kts 330°
2026-05-07 18:08 50.91047 4.48575 119 ft 2 kts 332°
2026-05-07 18:08 50.91028 4.48572 119 ft 3 kts 52°
2026-05-07 18:08 50.91014 4.48540 119 ft 3 kts 69°
2026-05-07 18:08 50.91013 4.48539 119 ft 0 kts 69°
2026-05-07 18:10 50.91015 4.48543 120 ft 2 kts 68°
2026-05-07 18:10 50.91034 4.48602 121 ft 16 kts 60°
2026-05-07 18:11 50.91098 4.48772 120 ft 19 kts 59°
2026-05-07 18:11 50.91146 4.48898 120 ft 21 kts 59°
2026-05-07 18:11 50.91253 4.49185 119 ft 24 kts 60°
2026-05-07 18:11 50.91344 4.49426 122 ft 27 kts 60°
2026-05-07 18:12 50.91423 4.49698 120 ft 28 kts 65°
2026-05-07 18:12 50.91456 4.49883 120 ft 13 kts 107°
2026-05-07 18:12 50.91410 4.49956 118 ft 0 kts 149°
2026-05-07 18:13 50.91402 4.49964 119 ft 8 kts 149°
2026-05-07 18:13 50.91311 4.50041 120 ft 17 kts 153°
2026-05-07 18:14 50.91199 4.50056 119 ft 17 kts 220°
2026-05-07 18:14 50.91149 4.49920 118 ft 0 kts 245°
2026-05-07 18:16 50.91148 4.49918 118 ft 1 kts 245°
2026-05-07 18:16 50.91077 4.49670 119 ft 62 kts 245°
2026-05-07 18:16 50.90785 4.48662 120 ft 137 kts 245°
2026-05-07 18:16 50.90298 4.46969 228 ft 195 kts 245°
2026-05-07 18:17 50.89678 4.44887 844 ft 217 kts 246°
2026-05-07 18:17 50.89347 4.42440 1574 ft 242 kts 276°
2026-05-07 18:17 50.90039 4.39982 2467 ft 252 kts 313°
2026-05-07 18:17 50.91368 4.38129 3497 ft 257 kts 321°
2026-05-07 18:18 50.92732 4.36274 4559 ft 262 kts 318°
2026-05-07 18:18 50.94053 4.34239 5648 ft 266 kts 314°
2026-05-07 18:18 50.95325 4.32088 6502 ft 270 kts 311°
2026-05-07 18:18 50.96579 4.29846 6953 ft 272 kts 311°
2026-05-07 18:19 50.97887 4.27694 7542 ft 276 kts 314°
2026-05-07 18:19 50.99283 4.25509 8653 ft 279 kts 314°
2026-05-07 18:19 51.00667 4.23347 9859 ft 280 kts 314°
2026-05-07 18:19 51.02075 4.21136 10718 ft 293 kts 314°
2026-05-07 18:20 51.03587 4.18749 11133 ft 319 kts 314°
2026-05-07 18:20 51.05205 4.16190 11799 ft 333 kts 314°
2026-05-07 18:20 51.06840 4.13601 12689 ft 339 kts 314°
2026-05-07 18:20 51.08525 4.10930 13531 ft 343 kts 314°
2026-05-07 18:21 51.10227 4.08228 13969 ft 347 kts 314°
2026-05-07 18:21 51.11953 4.05488 14056 ft 355 kts 315°
2026-05-07 18:21 51.13839 4.03076 14072 ft 339 kts 326°
2026-05-07 18:21 51.15912 4.01527 14077 ft 321 kts 341°
2026-05-07 18:22 51.18039 4.00678 14074 ft 311 kts 347°
2026-05-07 18:22 51.19469 4.00229 14071 ft 310 kts 348°
2026-05-07 18:22 51.22280 3.99423 14070 ft 310 kts 349°
2026-05-07 18:22 51.24406 3.98837 14071 ft 310 kts 349°
2026-05-07 18:23 51.26543 3.98256 14075 ft 311 kts 349°
2026-05-07 18:23 51.28674 3.97679 14066 ft 310 kts 349°
2026-05-07 18:23 51.30803 3.97103 14065 ft 310 kts 349°
2026-05-07 18:23 51.32933 3.96528 14067 ft 310 kts 349°
2026-05-07 18:24 51.35061 3.95953 14069 ft 310 kts 349°
2026-05-07 18:24 51.37191 3.95377 14068 ft 311 kts 349°
2026-05-07 18:24 51.39323 3.94801 14069 ft 311 kts 349°
2026-05-07 18:24 51.41453 3.94225 14069 ft 311 kts 349°
2026-05-07 18:25 51.43587 3.93646 14071 ft 310 kts 349°
2026-05-07 18:25 51.45719 3.93068 14072 ft 311 kts 349°
2026-05-07 18:25 51.47851 3.92490 14073 ft 311 kts 349°
2026-05-07 18:25 51.49982 3.91911 14074 ft 311 kts 349°
2026-05-07 18:26 51.52110 3.91333 14073 ft 310 kts 349°
2026-05-07 18:26 51.54246 3.90804 14072 ft 311 kts 354°
2026-05-07 18:26 51.56406 3.90934 14076 ft 312 kts
2026-05-07 18:26 51.58496 3.91880 14073 ft 313 kts 18°
2026-05-07 18:27 51.60540 3.93101 14076 ft 313 kts 20°
2026-05-07 18:27 51.62568 3.94388 13708 ft 315 kts 21°
2026-05-07 18:27 51.64599 3.95703 13273 ft 312 kts 21°
2026-05-07 18:27 51.65929 3.96570 12985 ft 310 kts 21°
2026-05-07 18:28 51.68592 3.98310 12404 ft 307 kts 21°
2026-05-07 18:28 51.70564 3.99602 11967 ft 305 kts 21°
2026-05-07 18:28 51.72524 4.00888 11529 ft 304 kts 21°
2026-05-07 18:28 51.74475 4.02169 11114 ft 302 kts 21°
2026-05-07 18:29 51.76407 4.03439 10718 ft 299 kts 21°
2026-05-07 18:29 51.78328 4.04703 10293 ft 298 kts 21°
2026-05-07 18:29 51.80222 4.05951 9891 ft 296 kts 21°
2026-05-07 18:29 51.82145 4.07219 9447 ft 294 kts 21°
2026-05-07 18:30 51.84009 4.08448 8967 ft 293 kts 22°
2026-05-07 18:30 51.85887 4.09688 8567 ft 290 kts 22°
2026-05-07 18:30 51.87753 4.10921 8027 ft 290 kts 22°
2026-05-07 18:30 51.89635 4.12166 7418 ft 285 kts 22°
2026-05-07 18:31 51.91385 4.13579 7132 ft 285 kts 34°
2026-05-07 18:31 51.92949 4.15517 7070 ft 283 kts 40°
2026-05-07 18:31 51.94452 4.17578 7074 ft 282 kts 41°
2026-05-07 18:31 51.95939 4.19646 7076 ft 281 kts 41°
2026-05-07 18:32 51.97425 4.21712 7074 ft 280 kts 41°
2026-05-07 18:32 51.98861 4.23703 7047 ft 265 kts 41°
2026-05-07 18:32 52.00230 4.25602 6929 ft 254 kts 41°
2026-05-07 18:32 52.01561 4.27448 6696 ft 250 kts 41°
2026-05-07 18:33 52.02882 4.29282 6417 ft 249 kts 41°
2026-05-07 18:33 52.04193 4.31101 6141 ft 246 kts 41°
2026-05-07 18:33 52.05488 4.32898 5825 ft 244 kts 42°
2026-05-07 18:33 52.06776 4.34688 5531 ft 243 kts 42°
2026-05-07 18:34 52.08055 4.36468 5283 ft 240 kts 41°
2026-05-07 18:34 52.09322 4.38230 5009 ft 239 kts 43°
2026-05-07 18:34 52.10580 4.39982 4715 ft 238 kts 42°
2026-05-07 18:34 52.11830 4.41724 4432 ft 235 kts 41°
2026-05-07 18:35 52.13069 4.43451 4177 ft 233 kts 42°
2026-05-07 18:35 52.14290 4.45156 3986 ft 228 kts 42°
2026-05-07 18:35 52.15466 4.46796 3917 ft 217 kts 42°
2026-05-07 18:35 52.16573 4.48343 3862 ft 202 kts 42°
2026-05-07 18:36 52.17626 4.49815 3558 ft 199 kts 43°
2026-05-07 18:36 52.18682 4.51296 3016 ft 202 kts 43°
2026-05-07 18:36 52.19739 4.52778 2626 ft 198 kts 42°
2026-05-07 18:36 52.20771 4.54222 2242 ft 193 kts 43°
2026-05-07 18:37 52.21757 4.55635 2027 ft 182 kts 46°
2026-05-07 18:37 52.22526 4.57214 2003 ft 177 kts 58°
2026-05-07 18:37 52.22964 4.58337 2002 ft 177 kts 59°
2026-05-07 18:37 52.23621 4.60026 1972 ft 177 kts 58°
2026-05-07 18:38 52.24279 4.61718 1763 ft 174 kts 59°
2026-05-07 18:38 52.24909 4.63344 1499 ft 163 kts 58°
2026-05-07 18:38 52.25644 4.65247 1235 ft 139 kts 59°
2026-05-07 18:38 52.25978 4.66114 1106 ft 128 kts 58°
2026-05-07 18:39 52.26435 4.67300 945 ft 121 kts 58°
2026-05-07 18:39 52.26878 4.68451 780 ft 120 kts 57°
2026-05-07 18:39 52.27318 4.69594 626 ft 120 kts 57°
2026-05-07 18:39 52.27761 4.70746 454 ft 121 kts 57°
2026-05-07 18:40 52.28209 4.71908 301 ft 119 kts 58°
2026-05-07 18:40 52.28653 4.73053 115 ft 118 kts 57°
2026-05-07 18:40 52.29093 4.74143 13 ft 108 kts 60°
2026-05-07 18:40 52.29405 4.75010 2 ft 54 kts 58°
2026-05-07 18:41 52.29475 4.75194 1 ft 8 kts 57°
2026-05-07 18:41 52.29555 4.75337 2 ft 15 kts 24°
2026-05-07 18:41 52.29654 4.75325 3 ft 15 kts 333°
2026-05-07 18:41 52.29747 4.75323 4 ft 3 kts 41°
2026-05-07 18:43 52.29748 4.75323 4 ft 1 kts 41°
2026-05-07 18:43 52.29767 4.75330 3 ft 4 kts
2026-05-07 18:43 52.29774 4.75322 3 ft 0 kts 327°
2026-05-07 18:43 52.29778 4.75315 3 ft 0 kts 316°
2026-05-07 18:44 52.29779 4.75314 3 ft 0 kts 316°
2026-05-07 18:45 52.29793 4.75303 3 ft 5 kts 342°
2026-05-07 18:45 52.29851 4.75365 3 ft 14 kts 58°
2026-05-07 18:45 52.29910 4.75516 3 ft 17 kts 57°
2026-05-07 18:46 52.29978 4.75693 3 ft 20 kts 58°
2026-05-07 18:46 52.30031 4.75882 3 ft 17 kts 93°
2026-05-07 18:46 52.30029 4.76076 3 ft 18 kts 64°
2026-05-07 18:46 52.30109 4.76292 3 ft 26 kts 58°
2026-05-07 18:47 52.30183 4.76484 3 ft 9 kts 58°
2026-05-07 18:47 52.30220 4.76580 3 ft 11 kts 58°
2026-05-07 18:47 52.30262 4.76689 3 ft 12 kts 58°
2026-05-07 18:47 52.30302 4.76794 3 ft 10 kts 58°
2026-05-07 18:48 52.30341 4.76898 3 ft 11 kts 58°
2026-05-07 18:48 52.30387 4.77017 3 ft 14 kts 57°
2026-05-07 18:48 52.30453 4.77191 3 ft 29 kts 58°
2026-05-07 18:48 52.30567 4.77485 3 ft 23 kts 53°
2026-05-07 18:49 52.30689 4.77588 3 ft 21 kts
2026-05-07 18:49 52.30834 4.77604 3 ft 22 kts
2026-05-07 18:49 52.30995 4.77618 3 ft 24 kts
2026-05-07 18:49 52.31151 4.77635 3 ft 18 kts
2026-05-07 18:50 52.31267 4.77612 4 ft 15 kts 307°
2026-05-07 18:50 52.31283 4.77441 3 ft 13 kts 271°
2026-05-07 18:50 52.31291 4.77296 3 ft 13 kts 275°
2026-05-07 18:50 52.31289 4.77206 3 ft 5 kts 242°
2026-05-07 18:51 52.31247 4.77173 3 ft 3 kts 193°
2026-05-07 18:51 52.31235 4.77168 3 ft 4 kts 191°
2026-05-07 18:51 52.31219 4.77165 3 ft 0 kts 186°